Location: Byszew
(52.1813°N, 19.2693°E)
Time: 01:34:34
(UTC+00:00)

Cosmos 2322 Rocket - Pass Details

Date: 24 June 2021
Orbit: 833 x 850 km, 71.0° (Epoch: 29 July)

Event Time Altitude Azimuth Distance (km) Brightness Sun altitude
Rises 01:20:35 0° 328° (NNW) 3,426 5.7 -7.2°
Reaches altitude 10° 01:23:36 10° 343° (NNW) 2,485 5.2 -6.9°
Maximum altitude 01:28:02 23° 35° (NE) 1,748 5.1 -6.5°
Drops below altitude 10° 01:32:27 10° 86° (E) 2,469 5.3 -6.1°
Sets 01:35:26 0° 101° (E) 3,398 5.8 -5.8°
